User: anonymous
Location: Albany
(35.0000°S, 118.0000°E)
Time: 05:09:23
(UTC-04:00)
Language:

Centaur D-1AR AC-48 - Orbit

View from above orbital plane
View from above orbital plane
View from above satellite
View from above satellite

Ground track
Ground track

The orbit data is extracted from the following two-line orbital elements,

1 10779U 78035B   14243.84780487 -.00000185  00000-0  12220-3 0  9330
2 10779 021.5625 063.3634 7180173 104.0948 003.1048 02.22633461295961
Epoch (UTC): 31 August 2014 20:20:50
Eccentricity: 0.7180173
inclination: 21.5625°
perigee height: 608 km
apogee height: 36185 km
right ascension of ascending node: 63.3634°
argument of perigee: 104.0948°
revolutions per day: 2.22633461
mean anomaly at epoch: 3.1048°
orbit number at epoch: 29596

The dashed part of the orbit path shows where the satellite is in the earth's shadow,  

DLR